[[{"header":{"parameterUnit":"m.s-1","parameterCategory":1,"la1":30.2992,"la2":30.254,"lo1":-89.0895,"lo2":-89.0443,"dy":0.0025,"dx":0.0025,"nx":19,"ny":19,"refTime":"2026-04-25T09:00:00:Z","depth":0,"parameterNumber":2,"parameterNumberName":"U-component_of_WINDS"},"data":[0,0,0,-0.8407,-0.8408,-0.8443,-0.8443,-0.8489,-0.849,0,0,0,0,0,0,0,0,0,0,0,-0.8396,-0.8396,-0.8407,-0.8408,-0.8443,-0.8443,-0.8489,-0.849,0,0,0,0,0,0,0,0,0,0,0,-0.8395,-0.8396,-0.8396,-0.8408,-0.8443,-0.8443,-0.8489,-0.8462,0,0,0,0,0,0,0,0,0,0,-0.8428,-0.8416,-0.8396,-0.8396,-0.8408,-0.8443,-0.8443,-0.8461,-0.8464,-0.8473,0,-0.848,0,-0.8486,-0.8493,-0.8493,0,0,0,-0.8408,-0.8414,-0.8424,-0.8396,-0.8408,-0.8443,-0.8427,-0.8463,-0.8466,-0.8477,-0.8481,-0.8483,-0.8486,-0.8493,-0.8493,-0.8543,-0.8543,0,0,-0.8406,-0.8402,-0.8422,-0.8426,-0.842,-0.8426,-0.8428,-0.8465,-0.8469,-0.8481,-0.8484,-0.8487,-0.8493,-0.8494,-0.8543,-0.8543,0,0,0,-0.84,-0.84,-0.841,-0.8424,-0.8431,-0.8427,-0.843,-0.8467,-0.847,-0.8484,-0.8488,-0.8493,-0.8494,-0.8543,-0.8543,-0.8549,0,0,0,-0.8399,-0.8397,-0.8409,-0.8406,-0.843,-0.8449,-0.8431,-0.8468,-0.8472,-0.8487,-0.8493,-0.8494,-0.8543,-0.8543,-0.8548,-0.8552,0,0,0,-0.8394,-0.8396,-0.8401,-0.8406,-0.8421,-0.8448,-0.8454,-0.8469,-0.8474,-0.8493,-0.8495,-0.8542,-0.8543,-0.8547,-0.8551,-0.8565,0,0,0,-0.8386,-0.8404,-0.8401,-0.8423,-0.842,-0.8451,-0.8454,-0.8477,-0.8494,-0.8494,-0.8543,-0.8543,-0.8547,-0.855,-0.8564,-0.8575,-0.8579,0,0,-0.8406,-0.8406,-0.842,-0.8418,-0.8448,-0.8446,-0.8478,-0.8498,-0.8504,-0.853,-0.8532,-0.8548,-0.8551,-0.8564,-0.8604,-0.8607,0,0,0,-0.8425,-0.8434,-0.8443,-0.8459,-0.8475,-0.8489,-0.8504,-0.8512,-0.8535,-0.8516,-0.8557,-0.8558,-0.8567,-0.8572,-0.8575,-0.8583,-0.8545,-0.8545,-0.8545,-0.8445,-0.8453,-0.8477,-0.8489,-0.8505,-0.8522,-0.8536,-0.8549,-0.8552,-0.8562,-0.8569,-0.8592,-0.8598,-0.86,-0.8609,-0.8576,-0.8576,-0.8576,-0.8576,-0.8476,-0.8491,-0.8497,-0.8521,-0.853,-0.8551,-0.8569,-0.8571,-0.8593,-0.8586,-0.8594,-0.8586,-0.8604,-0.8611,-0.8576,-0.8576,-0.8576,-0.8576,-0.8576,-0.8491,-0.85,-0.8509,-0.8534,-0.8553,-0.8566,-0.8588,-0.8595,-0.8602,-0.861,-0.862,-0.862,-0.8621,-0.8614,-0.8614,-0.8614,-0.8614,-0.8614,-0.8614,-0.8502,-0.8513,-0.8529,-0.8549,-0.8562,-0.8579,-0.8599,-0.8611,-0.8628,-0.8631,-0.8632,-0.8635,-0.8604,-0.8596,-0.8616,-0.8615,-0.8615,-0.8615,-0.8615,-0.853,-0.8526,-0.8551,-0.8563,-0.8589,-0.8609,-0.8619,-0.8645,-0.8657,-0.8668,-0.867,-0.8646,-0.8646,-0.8644,-0.8638,-0.8667,-0.8667,-0.8667,-0.8667,-0.8543,-0.8544,-0.8573,-0.8593,-0.8613,-0.8626,-0.8657,-0.8674,-0.869,-0.8699,-0.8696,-0.8688,-0.8686,-0.8688,-0.8685,-0.8679,-0.8718,-0.8718,-0.8718,-0.8561,-0.8565,-0.8589,-0.8605,-0.8626,-0.8645,-0.8675,-0.87,-0.8717,-0.8721,-0.8706,-0.8704,-0.8692,-0.8687,-0.8688,-0.8683,-0.8673,0,0]},{"header":{"parameterUnit":"m.s-1","parameterCategory":1,"la1":30.2992,"la2":30.254,"lo1":-89.0895,"lo2":-89.0443,"dy":0.0025,"dx":0.0025,"nx":19,"ny":19,"refTime":"2026-04-25T09:00:00:Z","depth":0,"parameterNumber":3,"parameterNumberName":"V-component_of_WINDS"},"data":[0,0,0,1.8885,1.8885,1.8841,1.8841,1.8805,1.8805,0,0,0,0,0,0,0,0,0,0,0,1.8912,1.8912,1.8885,1.8884,1.8841,1.8841,1.8805,1.8805,0,0,0,0,0,0,0,0,0,0,0,1.8911,1.8912,1.8912,1.8884,1.8841,1.8841,1.8805,1.8831,0,0,0,0,0,0,0,0,0,0,1.8869,1.8907,1.8912,1.8912,1.8884,1.8841,1.8841,1.8831,1.8829,1.8834,0,1.8843,0,1.8824,1.8804,1.8804,0,0,0,1.8874,1.8909,1.8885,1.8912,1.8884,1.8842,1.8858,1.883,1.8827,1.8831,1.8842,1.884,1.8823,1.8804,1.8804,1.8869,1.887,0,0,1.8876,1.8911,1.8888,1.8884,1.8894,1.8859,1.8857,1.8828,1.8842,1.8842,1.8839,1.8823,1.8804,1.8804,1.8868,1.8869,0,0,0,1.889,1.8913,1.8889,1.8887,1.8877,1.8858,1.8855,1.8844,1.8833,1.8839,1.8822,1.8804,1.8804,1.8868,1.8869,1.8942,0,0,0,1.8891,1.8921,1.8891,1.8912,1.8878,1.886,1.8872,1.8835,1.8831,1.8822,1.8804,1.8804,1.8867,1.8868,1.8938,1.8971,0,0,0,1.891,1.8923,1.8922,1.8914,1.8896,1.886,1.8847,1.8833,1.8821,1.8804,1.8804,1.8866,1.8868,1.8935,1.8965,1.8998,0,0,0,1.8939,1.8988,1.8923,1.8971,1.8897,1.8906,1.8847,1.8852,1.8846,1.8804,1.8867,1.8869,1.8934,1.8961,1.8994,1.9032,1.9051,0,0,1.9019,1.8999,1.9023,1.8965,1.8995,1.891,1.8949,1.8911,1.8877,1.8873,1.8874,1.8939,1.8965,1.8997,1.9145,1.916,0,0,0,1.9061,1.9079,1.9079,1.9076,1.9048,1.9026,1.8978,1.8963,1.8958,1.8883,1.8959,1.8973,1.899,1.9007,1.902,1.9032,1.8878,1.8878,1.8877,1.9224,1.9178,1.9216,1.9165,1.9162,1.9111,1.9104,1.9075,1.903,1.9048,1.9047,1.9143,1.9163,1.9173,1.9186,1.9063,1.9063,1.9064,1.9064,1.9337,1.9356,1.9294,1.9309,1.9259,1.927,1.9222,1.9189,1.9191,1.914,1.9153,1.9102,1.9191,1.92,1.9069,1.9068,1.9067,1.9067,1.9066,1.9439,1.944,1.9422,1.9411,1.9407,1.9353,1.9357,1.9312,1.9268,1.9281,1.9274,1.9273,1.9265,1.9281,1.9282,1.9282,1.9282,1.9282,1.9283,1.9552,1.9529,1.954,1.9513,1.9504,1.9486,1.9434,1.9423,1.9399,1.9365,1.9365,1.9317,1.9208,1.9182,1.9288,1.9287,1.9286,1.9286,1.9285,1.9684,1.9647,1.9663,1.9654,1.9618,1.9617,1.9558,1.9539,1.9523,1.9527,1.9475,1.9402,1.9377,1.9367,1.9344,1.9486,1.9486,1.9486,1.9486,1.977,1.9753,1.9759,1.9747,1.973,1.9679,1.9696,1.9655,1.9606,1.9593,1.9565,1.9532,1.9523,1.9503,1.9489,1.9468,1.9637,1.9637,1.9637,1.9848,1.9827,1.9852,1.9806,1.9774,1.9747,1.9761,1.9748,1.9684,1.9643,1.9581,1.9574,1.952,1.9505,1.9463,1.9443,1.9402,0,0]}]]